[[{"header":{"parameterUnit":"m.s-1","parameterCategory":1,"la1":30.2991,"la2":30.254,"lo1":-89.0895,"lo2":-89.0444,"dy":0.0017,"dx":0.0017,"nx":28,"ny":28,"refTime":"2025-12-19T03:00:00:Z","depth":0,"parameterNumber":2,"parameterNumberName":"U-component_of_WINDS"},"data":[0,0,0,0,0,0,0,0,0,0,0,0,0,0,0,0,0,0,0,0,0,0,0,0,0,0,0,0,0,0,0,0,0,0,0,0,0,0,0,0,0,0,0,0,0,0,0,0,0,0,0,0,0,0,0,0,0,0,-1.2332,-1.2333,0,-1.239,-1.239,-1.2391,-1.2422,-1.2422,-1.2422,-1.2422,-1.2477,-1.2479,-1.248,0,0,0,0,0,0,0,0,0,0,0,0,0,-1.2245,-1.2247,-1.2332,-1.2333,-1.2333,-1.239,-1.239,-1.2391,-1.2422,-1.2422,-1.2422,-1.2423,-1.2477,-1.2479,-1.248,0,0,0,0,0,0,0,0,0,0,0,0,0,-1.2291,-1.2247,-1.2332,-1.2356,-1.2359,-1.2389,-1.239,-1.2391,-1.2422,-1.2422,-1.2422,-1.2423,-1.2476,-1.2479,-1.2481,-1.2491,0,0,-1.2487,-1.2488,0,0,0,0,0,0,0,0,-1.2288,-1.2294,-1.2352,-1.2354,-1.2357,-1.2399,-1.238,-1.2424,-1.2422,-1.2398,-1.2422,-1.2423,-1.2451,-1.2455,-1.2466,-1.2493,-1.2496,-1.2487,-1.2488,-1.2489,-1.249,0,0,0,0,0,0,0,-1.2285,-1.2292,-1.2355,-1.2352,-1.2356,-1.2362,-1.2369,-1.2389,-1.2423,-1.24,-1.2402,-1.2409,-1.2453,-1.2463,-1.2467,-1.2497,-1.2487,-1.2489,-1.249,-1.2491,-1.2536,-1.2536,0,0,0,0,0,0,-1.2279,-1.2289,-1.2353,-1.2356,-1.2323,-1.2364,-1.2371,-1.2385,-1.2423,-1.2429,-1.2409,-1.241,-1.246,-1.2465,-1.2469,-1.2484,-1.2489,-1.2491,-1.2492,-1.2536,-1.2536,-1.2535,0,0,0,0,0,0,-1.2277,-1.2284,-1.2351,-1.2323,-1.2332,-1.2365,-1.2381,-1.2386,-1.2398,-1.243,-1.2435,-1.2414,-1.246,-1.2466,-1.2485,-1.2486,-1.2492,-1.2494,-1.2536,-1.2536,-1.2536,-1.2513,0,0,0,0,0,0,-1.2274,-1.2283,-1.2288,-1.2323,-1.2334,-1.2367,-1.2381,-1.2387,-1.2401,-1.2404,-1.2436,-1.2441,-1.2461,-1.2482,-1.2488,-1.2489,-1.2496,-1.2536,-1.2536,-1.2536,-1.2514,-1.2512,-1.251,0,0,0,0,0,-1.2271,-1.2278,-1.2288,-1.2296,-1.2341,-1.2367,-1.2373,-1.2396,-1.2401,-1.2406,-1.2427,-1.244,-1.2485,-1.2484,-1.249,-1.2492,-1.2536,-1.2536,-1.2536,-1.2514,-1.2512,-1.251,0,0,0,0,0,0,-1.2241,-1.2283,-1.2295,-1.2314,-1.2337,-1.2372,-1.2379,-1.2393,-1.2414,-1.2415,-1.2442,-1.2449,-1.2465,-1.2481,-1.2479,-1.2504,-1.2512,-1.2513,-1.2493,-1.2492,-1.249,-1.2486,-1.2497,0,0,0,0,0,-1.2237,-1.2256,-1.2291,-1.2305,-1.2316,-1.2345,-1.2358,-1.2374,-1.2398,-1.2407,-1.2429,-1.2451,-1.247,-1.2482,-1.2501,-1.2516,-1.2523,-1.252,-1.2519,-1.2517,-1.2518,-1.2527,-1.2526,-1.2535,-1.2535,-1.2535,0,0,-1.2228,-1.2254,-1.2264,-1.23,-1.2319,-1.2337,-1.2353,-1.2371,-1.2384,-1.2409,-1.2429,-1.2446,-1.2472,-1.2489,-1.2498,-1.2503,-1.2517,-1.2517,-1.2516,-1.2517,-1.2527,-1.2526,-1.2525,-1.2535,-1.2535,-1.2535,0,0,-1.2222,-1.2243,-1.2257,-1.2277,-1.2306,-1.2326,-1.2329,-1.2363,-1.2375,-1.2396,-1.2415,-1.2431,-1.2463,-1.2481,-1.2494,-1.2494,-1.2507,-1.25,-1.2491,-1.25,-1.2499,-1.2499,-1.2499,-1.2499,-1.25,-1.25,-1.25,0,-1.2207,-1.2236,-1.2262,-1.228,-1.2295,-1.232,-1.2333,-1.235,-1.2384,-1.2393,-1.2399,-1.244,-1.2459,-1.2481,-1.2481,-1.2491,-1.2495,-1.2496,-1.2497,-1.2497,-1.2497,-1.2497,-1.2497,-1.2499,-1.2499,-1.2499,-1.2499,0,-1.2216,-1.2235,-1.2243,-1.2277,-1.2293,-1.2308,-1.2336,-1.2348,-1.2363,-1.2382,-1.2402,-1.2426,-1.2451,-1.2458,-1.2472,-1.2481,-1.2483,-1.2493,-1.2501,-1.2495,-1.2495,-1.2496,-1.2498,-1.2498,-1.2498,-1.2499,0,0,-1.2191,-1.224,-1.2243,-1.2258,-1.2293,-1.2308,-1.2325,-1.235,-1.236,-1.2383,-1.2397,-1.2424,-1.2433,-1.2448,-1.2464,-1.2471,-1.247,-1.248,-1.2481,-1.2477,-1.2482,-1.2475,-1.2475,-1.2479,-1.248,-1.248,-1.248,0,-1.219,-1.2222,-1.2246,-1.2268,-1.2286,-1.231,-1.2324,-1.2347,-1.2365,-1.2382,-1.2401,-1.242,-1.2431,-1.244,-1.2448,-1.2469,-1.2472,-1.2469,-1.2492,-1.2492,-1.2484,-1.2475,-1.2467,-1.2467,-1.2481,-1.2481,-1.2481,0,-1.2192,-1.2215,-1.2239,-1.2273,-1.2281,-1.2294,-1.2319,-1.2336,-1.2361,-1.2374,-1.2391,-1.2408,-1.2425,-1.2432,-1.2456,-1.2454,-1.2464,-1.2476,-1.2476,-1.2479,-1.2486,-1.2477,-1.2467,-1.2467,-1.2481,-1.2481,-1.2481,0,-1.2171,-1.2208,-1.2228,-1.2241,-1.228,-1.2288,-1.2305,-1.2331,-1.2345,-1.2366,-1.2376,-1.2399,-1.2411,-1.2428,-1.2451,-1.2454,-1.2472,-1.2481,-1.2482,-1.2481,-1.2484,-1.2484,-1.2475,-1.2492,-1.2492,-1.2492,-1.2492,0,-1.2166,-1.218,-1.2219,-1.2231,-1.2247,-1.2275,-1.2289,-1.2308,-1.2331,-1.2346,-1.2368,-1.2381,-1.2411,-1.2427,-1.2445,-1.2462,-1.2467,-1.2477,-1.2482,-1.2475,-1.2474,-1.2482,-1.2483,-1.2492,-1.2492,-1.2492,-1.2492,0,-1.2146,-1.2173,-1.2196,-1.2232,-1.2241,-1.2251,-1.2282,-1.2294,-1.2313,-1.2332,-1.2338,-1.2368,-1.2389,-1.2414,-1.2442,-1.2454,-1.2469,-1.2476,-1.2461,-1.2464,-1.2463,-1.2463,-1.246,-1.2461,-1.2476,-1.2476,-1.2476,0,-1.2141,-1.2152,-1.219,-1.2203,-1.2219,-1.2239,-1.2253,-1.2281,-1.2295,-1.2325,-1.2333,-1.2356,-1.2376,-1.2408,-1.2432,-1.2454,-1.2461,-1.2459,-1.2465,-1.2458,-1.2461,-1.246,-1.2461,-1.2457,-1.2456,-1.2456,-1.2456,0,-1.2129,-1.2142,-1.2163,-1.2189,-1.2207,-1.2228,-1.225,-1.2258,-1.229,-1.2305,-1.2327,-1.2343,-1.2373,-1.2395,-1.242,-1.2436,-1.2451,-1.2454,-1.2456,-1.2449,-1.244,-1.2444,-1.2456,-1.2454,-1.2454,-1.2454,-1.2454,-1.2454,-1.2116,-1.2127,-1.2156,-1.2179,-1.2199,-1.2219,-1.2232,-1.2254,-1.2274,-1.2301,-1.2316,-1.2338,-1.2363,-1.2399,-1.2414,-1.2431,-1.2436,-1.2439,-1.2439,-1.2439,-1.2437,-1.2437,-1.2436,-1.2436,-1.2436,-1.2436,-1.2436,0,-1.2105,-1.2125,-1.2146,-1.2177,-1.2195,-1.2209,-1.2234,-1.2248,-1.2267,-1.229,-1.231,-1.2336,-1.2358,-1.2383,-1.2407,-1.2415,-1.2423,-1.2421,-1.242,-1.2423,-1.2431,-1.2428,-1.2414,-1.2414,-1.2414,-1.2414,-1.2414,-1.2414,-1.2101,-1.2121,-1.2138,-1.2168,-1.2187,-1.221,-1.2224,-1.2242,-1.2261,-1.2289,-1.2308,-1.2325,-1.2349,-1.2375,-1.2395,-1.2402,-1.241,-1.2405,-1.2414,-1.2421,-1.2423,-1.2424,-1.2421,-1.2407,-1.2407,-1.2405,-1.2405,-1.2405]},{"header":{"parameterUnit":"m.s-1","parameterCategory":1,"la1":30.2991,"la2":30.254,"lo1":-89.0895,"lo2":-89.0444,"dy":0.0017,"dx":0.0017,"nx":28,"ny":28,"refTime":"2025-12-19T03:00:00:Z","depth":0,"parameterNumber":3,"parameterNumberName":"V-component_of_WINDS"},"data":[0,0,0,0,0,0,0,0,0,0,0,0,0,0,0,0,0,0,0,0,0,0,0,0,0,0,0,0,0,0,0,0,0,0,0,0,0,0,0,0,0,0,0,0,0,0,0,0,0,0,0,0,0,0,0,0,0,0,3.3806,3.3807,0,3.3917,3.3918,3.3919,3.3917,3.3916,3.3914,3.3913,3.4019,3.4023,3.4027,0,0,0,0,0,0,0,0,0,0,0,0,0,3.3588,3.3592,3.3806,3.3807,3.3809,3.3916,3.3918,3.3919,3.3917,3.3916,3.3914,3.3912,3.4018,3.4023,3.4028,0,0,0,0,0,0,0,0,0,0,0,0,0,3.3688,3.3593,3.3806,3.3821,3.3823,3.3916,3.3918,3.392,3.3918,3.3916,3.3913,3.3911,3.4016,3.4022,3.4028,3.4111,0,0,3.4047,3.405,0,0,0,0,0,0,0,0,3.3683,3.3696,3.3817,3.382,3.3823,3.3901,3.388,3.3984,3.3918,3.3882,3.3913,3.391,3.3981,3.399,3.4015,3.4116,3.412,3.4048,3.4052,3.4054,3.4056,0,0,0,0,0,0,0,3.3676,3.3692,3.385,3.3819,3.3823,3.382,3.3832,3.3899,3.3942,3.3885,3.3885,3.3898,3.3982,3.4009,3.4018,3.4122,3.4048,3.4053,3.4057,3.406,3.4298,3.43,0,0,0,0,0,0,3.3667,3.3686,3.3846,3.3853,3.3746,3.3826,3.3839,3.3878,3.3941,3.3949,3.39,3.3898,3.4,3.401,3.4021,3.4125,3.4054,3.406,3.4064,3.4295,3.4298,3.4301,0,0,0,0,0,0,3.3662,3.3681,3.3842,3.377,3.379,3.3832,3.3876,3.3881,3.3909,3.3953,3.396,3.3921,3.3998,3.4013,3.409,3.4129,3.4063,3.4069,3.4292,3.4296,3.43,3.4331,0,0,0,0,0,0,3.3656,3.3679,3.3712,3.377,3.3794,3.391,3.3878,3.3885,3.392,3.3919,3.3974,3.3981,3.3998,3.408,3.4096,3.4136,3.4074,3.4289,3.4294,3.4299,3.4327,3.4335,3.4343,0,0,0,0,0,3.3648,3.3715,3.3714,3.3733,3.3837,3.3912,3.3925,3.3945,3.3924,3.3957,3.3985,3.3979,3.4121,3.4088,3.4106,3.4148,3.4287,3.4293,3.4298,3.4323,3.4334,3.4343,0,0,0,0,0,0,3.3657,3.3722,3.3723,3.3811,3.3856,3.3912,3.3954,3.3955,3.4006,3.4002,3.4021,3.4034,3.4112,3.4137,3.4099,3.4232,3.4201,3.4211,3.4214,3.4224,3.4232,3.4226,3.4079,0,0,0,0,0,3.367,3.3728,3.3781,3.3853,3.3876,3.3911,3.3945,3.3957,3.4003,3.4022,3.4056,3.41,3.4155,3.419,3.4243,3.4329,3.4342,3.4367,3.4375,3.4381,3.439,3.444,3.4452,3.432,3.432,3.432,0,0,3.3696,3.3739,3.3774,3.3856,3.3893,3.3952,3.3928,3.399,3.4033,3.403,3.4108,3.4134,3.4184,3.4267,3.4305,3.429,3.4429,3.4389,3.4394,3.4399,3.4447,3.446,3.4471,3.4324,3.4323,3.4323,0,0,3.3775,3.3812,3.3879,3.3916,3.3973,3.3996,3.4012,3.4068,3.4087,3.4164,3.4164,3.4214,3.4307,3.4345,3.4375,3.4469,3.4466,3.4485,3.4528,3.4576,3.4587,3.4596,3.4632,3.4644,3.4493,3.4493,3.4493,0,3.38,3.389,3.3911,3.3976,3.4012,3.4015,3.4082,3.4116,3.4186,3.4211,3.4194,3.4313,3.4346,3.4439,3.4463,3.4486,3.4505,3.448,3.4584,3.4593,3.4602,3.4637,3.465,3.4495,3.4495,3.4495,3.4494,0,3.3919,3.3982,3.4028,3.41,3.4141,3.4205,3.4235,3.4274,3.4282,3.4306,3.4385,3.4426,3.4488,3.451,3.4516,3.4604,3.4594,3.458,3.4549,3.4617,3.465,3.4663,3.4498,3.4497,3.4497,3.4496,0,0,3.4008,3.4092,3.4109,3.4142,3.4206,3.4254,3.4318,3.4381,3.4415,3.4462,3.4518,3.4597,3.4586,3.4621,3.4631,3.4673,3.4748,3.4654,3.4656,3.4673,3.4849,3.4862,3.4877,3.4745,3.4748,3.475,3.4846,0,3.4096,3.4214,3.4236,3.4338,3.4397,3.44,3.4457,3.4501,3.4525,3.4577,3.4602,3.466,3.4638,3.466,3.4701,3.473,3.4784,3.4723,3.4797,3.4799,3.4788,3.4893,3.4906,3.4996,3.4859,3.4861,3.4862,0,3.4214,3.4269,3.4379,3.4437,3.4462,3.4513,3.4574,3.4623,3.4673,3.4687,3.4727,3.4733,3.4799,3.4764,3.4855,3.4814,3.4844,3.4863,3.4867,3.4876,3.4837,3.4909,3.5024,3.5039,3.4882,3.4881,3.4879,0,3.4272,3.4372,3.4452,3.448,3.4548,3.4584,3.4614,3.4662,3.4699,3.4751,3.4775,3.4833,3.4865,3.4908,3.4929,3.4901,3.502,3.4986,3.5035,3.5034,3.5062,3.506,3.5187,3.5077,3.5076,3.5076,3.5076,0,3.437,3.4437,3.448,3.4529,3.4604,3.4627,3.47,3.4728,3.4771,3.4825,3.4829,3.4879,3.4902,3.4955,3.4971,3.5046,3.5059,3.5073,3.5077,3.5074,3.5073,3.5097,3.5092,3.508,3.5079,3.5078,3.5078,0,3.4448,3.4479,3.4567,3.4625,3.4641,3.4695,3.4744,3.4791,3.4814,3.4882,3.4899,3.4936,3.4999,3.5024,3.5099,3.511,3.5197,3.5194,3.5182,3.5184,3.5232,3.5228,3.5381,3.5403,3.5275,3.5276,3.5277,0,3.451,3.4563,3.4628,3.4666,3.4698,3.4758,3.4797,3.482,3.486,3.4922,3.4962,3.5025,3.5077,3.5177,3.5209,3.5267,3.5268,3.5317,3.5276,3.5273,3.5272,3.527,3.5276,3.5325,3.5327,3.5328,3.5328,0,3.4618,3.4631,3.4689,3.4753,3.48,3.4851,3.4899,3.4929,3.496,3.5004,3.507,3.5111,3.519,3.5253,3.5313,3.5341,3.5341,3.5341,3.5356,3.5355,3.5347,3.5355,3.5206,3.5338,3.5337,3.5336,3.5336,3.5335,3.4693,3.4741,3.4795,3.486,3.4899,3.4945,3.4994,3.5025,3.5081,3.5149,3.5158,3.5229,3.5277,3.5359,3.5389,3.5444,3.5431,3.5452,3.5458,3.5463,3.5468,3.5336,3.5454,3.5454,3.5454,3.5454,3.5454,0,3.4803,3.4839,3.4898,3.4968,3.5019,3.5015,3.5069,3.5112,3.5175,3.5221,3.5274,3.535,3.5411,3.5448,3.551,3.5547,3.5548,3.5562,3.5561,3.5568,3.5475,3.5458,3.556,3.556,3.556,3.556,3.556,3.556,3.4868,3.495,3.4969,3.5071,3.5105,3.5177,3.5209,3.5251,3.5289,3.5375,3.5427,3.5452,3.5494,3.5559,3.5615,3.5624,3.5648,3.5664,3.5672,3.5585,3.5574,3.5564,3.5548,3.5668,3.5668,3.5761,3.5762,3.5763]}]]